Location: Walton
(43.6794°N, 81.3017°W)
Time: 02:26:14
(UTC+00:00)

NOSS 3-1 (C) - Pass Details

Date: 09 December 2025
Orbit: 618 x 1583 km, 63.4° (Epoch: 10 January)

Event Time Altitude Azimuth Distance (km) Brightness Sun altitude
Exits shadow 09:58:59 38° 345° (NNW) 1,737 4.6 -29.5°
Maximum altitude 10:01:59 62° 49° (NE) 1,406 4.3 -29.0°
Drops below altitude 10° 10:10:44 10° 130° (SE) 3,583 7.1 -27.4°
Sets 10:13:59 0° 133° (SE) 4,647 7.8 -26.8°
